Showing default

LEMUR 2 MJR092620, 58340

Orbit data source: Space-Track

LEMUR 2 MJR092620, 58340 is an American payload satellite in SSO that was launched on Sat, 11 Nov 2023 UTC via an FALCON 9 launch vehicle from the Air Force Western Test Range (AFWTR). Payload-class satellites include a variety of spacecraft equipped with specific instruments for various scientific and technological missions. These include communications satellites like Starlink; space stations such as the ISS; scientific satellites like the Hubble; Earth observation satellites from companies like Planet Labs, Umbra, and HawkEye 360; GPS; miniature CubeSats for education and research; and military/defense satellites.

Loading next visibility...
Identifier
58340, 2023-174CN
Orbit
SSO
Country
Flag of USUS
Related business
Manufacturer
Spire/Glasgow
Mission
Operational Commercial Earth Obs Sci
Bus & Motor
CUBESAT 16U, Unknown motor
Mass
~20 kg wet, ~20 kg dry
Launch date (UTC)
2023-11-11 (3 years ago)
Launch vehicle
FALCON 9
Launch site
Air Force Western Test Range (AFWTR)
Object type
Payload
Rocket body
Debris
Shape & HBR
Box, 0.2 m
Radar Cross Section
0.240 m², Medium (>0.1 m² and < 1m²)

Expand to show TLE details & history
Last TLE update: 2 days ago

TLE from 2 days ago
0 LEMUR 2 MJR092620
1 58340U 23174CN  26171.20298048  .00016613  00000-0  35405-3 0  9994
2 58340  97.3972 261.2875 0007082 108.7940 251.4078 15.44969470146115
Epoch: 2026-06-20T04:52Z
TLE epoch observation values (Epoch: 2026-06-20T04:52:17.513Z)
Latitude
0.00003°
Longitude
-80.20645°
Altitude
436.133 km
Speed
7.649 km/s
True Right ascension
17h 25m 08s
True Declination
0° 00' 00"
Sunlit
Object was in full shadow at epoch
Visualization orbit readout
Latitude
Unknown
Longitude
Unknown
Altitude
Unknown
Speed
Unknown
Apparent Right ascension
Unknown
Apparent Declination
Unknown
Sunlit
N/A
Visualization observer readout
Local Sidereal Time
21:39:05
Azimuth
Unknown
Elevation
Unknown
Doppler factor
Unknown
Orbital elements
Apogee altitude
433.22 km
Perigee altitude
423.58 km
Semi-major axis
6,806.537 km
Eccentricity
0.00071
Inclination
97.3972°
RAAN
261.2875°
Arg. of periapsis
108.794°
True anomaly
251.3309°
Mean anomaly
251.4078°
Eccentric anomaly
251.36935°
Mean motion
3.86504 °/min
Orbital period
93.14 mins
BSTAR
0.00035405
Loading maneuver chart data...
Computing Atmospheric mass density...

Documentation

Showing up to 5 results
|